Location: Harwich
(41.7160°N, 69.9939°W)
Time: 00:44:41
(UTC+01:00)

Hubble Space Telescope - Pass Details

Date: 10 December 2022
Orbit: 529 x 532 km, 28.5° (Epoch: 31 January)

Event Time Altitude Azimuth Distance (km) Brightness Sun altitude
Exits shadow 10:28:26 10° 174° (S) 1,759 3.5 -26.7°
Maximum altitude 10:28:48 10° 169° (S) 1,753 3.6 -26.6°
Drops below altitude 10° 10:29:14 10° 163° (SSE) 1,763 3.7 -26.6°
Sets 10:33:40 0° 118° (ESE) 2,651 5.4 -25.7°
